7 * 24
多渠道服务支持
STARLINK-32131 是 SpaceX Starlink 项目中的一颗低轨通信卫星,属于第三代 Starlink 卫星(也称为 v1.5 或 Block V)。该卫星于 2023 年发射,旨在为全球用户提供高速、低延迟的互联网服务。它运行在约 550 公里的轨道高度,配备先进推进系统和激光通信设备,以提升网络效率和减少地面基站依赖。作为 Starlink 卫星群的一部分,STARLINK-32131 有助于扩展覆盖范围,特别是在偏远和网络基础设施薄弱的地区。
美国
(US)
| 数据来源 | 国际轨道数据 |
| 星历时间: | 2025-12-19T13:09:09+0800 1天前 查看轨道信息 |
| 半长轴: | 6853.396km |
| 偏心率: | 0.0001416 |
| 轨道倾角: | 53.163° |
| 近地点辐角 | 96.698° |
| 升交点赤经 | 333.824° |
| 平近点角 | 263.419° |
| 近地点: | 474.288km |
| 远地点: | 476.23km |
| 周期: | 94.106分钟 |
| 每日圈数: | 15.301855 |